P/2017 FL36 ( PanSTARRS ) 2025

Japanese version
Home page
Updated on April 26, 2025

---------------------------------------------------------------------

* Profile

* Orbital Elements

Epoch 2025 May 5.0 TT = JDT 2460800.5                                           
T 2025 Aug. 8.49398 TT                                  Veres                   
q   2.8309868            (2000.0)            P               Q                  
n   0.19685352     Peri.   90.17713     +0.69677752     -0.68990863             
a   2.9266712      Node   313.45236     +0.50200115     +0.66449408             
e   0.0326939      Incl.   15.68704     +0.51234358     +0.28718235             
P   5.01                                                                        
From 27 observations 2017 Feb. 23-Apr. 1, mean residual 0".4.                   

* Magnitudes Graph

        H = 16.5  G = 0.15

---------------------------------------------------------------------

The orbital elements are published on M.P.E.C. 2025-H86.
The magnitudes graphs are made with Comet for Windows.

---------------------------------------------------------------------

Copyright(C) Seiichi Yoshida (comet@aerith.net). All rights reserved.